This is the latest recevied weather packets stored in our database for station/object K6TTR. If no packets are shown the sender has not sent any weather packets the latest 10 day(s).
| Time | Temp. | Humidity | Pressure | Rain* | Wind** | Luminosity | Snow |
|---|---|---|---|---|---|---|---|
| 1777833212 | 17.22° C | 46% | 1014.4 hPa | 0 mm | - | 156 W/m² | - |
| 1777832917 | 17.22° C | 45% | 1014.3 hPa | 0 mm | - | 204 W/m² | - |
| 1777832623 | 17.22° C | 47% | 1014.2 hPa | 0 mm | - | 202 W/m² | - |
| 1777832329 | 17.22° C | 48% | 1014.3 hPa | 0 mm | - | 206 W/m² | - |
| 1777832014 | 17.22° C | 47% | 1014.2 hPa | 0 mm | - | 209 W/m² | - |
| 1777831720 | 17.22° C | 50% | 1014.1 hPa | 0 mm | - | 239 W/m² | - |
| 1777831426 | 17.22° C | 48% | 1014 hPa | 0 mm | - | 294 W/m² | - |
| 1777831130 | 16.67° C | 46% | 1014 hPa | 0 mm | - | 283 W/m² | - |
| 1777830817 | 16.67° C | 47% | 1014 hPa | 0 mm | - | 316 W/m² | - |
| 1777830521 | 16.67° C | 49% | 1014 hPa | 0 mm | - | 287 W/m² | - |
| 1777830226 | 16.67° C | 52% | 1014.1 hPa | 0 mm | - | 274 W/m² | - |
| 1777829912 | 16.11° C | 54% | 1013.3 hPa | 0 mm | - | 285 W/m² | - |
| 1777829617 | 15.56° C | 54% | 1013.3 hPa | 0 mm | - | 285 W/m² | - |
| 1777829320 | 15.56° C | 58% | 1013.4 hPa | 0 mm | - | 283 W/m² | - |
| 1777829026 | 15° C | 60% | 1013.4 hPa | 0 mm | - | 267 W/m² | - |
| 1777828728 | 15° C | 58% | 1013.4 hPa | 0 mm | - | 251 W/m² | - |
| 1777828118 | 14.44° C | 63% | 1013.6 hPa | 0 mm | - | 221 W/m² | - |
| 1777827822 | 13.89° C | 64% | 1013.7 hPa | 0 mm | - | 229 W/m² | - |
| 1777827527 | 13.89° C | 63% | 1013.8 hPa | 0 mm | - | 202 W/m² | - |
| 1777827212 | 13.89° C | 64% | 1013.6 hPa | 0 mm | - | 171 W/m² | - |
| 1777826915 | 13.33° C | 65% | 1013.7 hPa | 0 mm | - | 158 W/m² | - |
| 1777826619 | 13.33° C | 65% | 1013.7 hPa | 0 mm | - | 144 W/m² | - |
| 1777826325 | 13.33° C | 64% | 1013.7 hPa | 0 mm | - | 130 W/m² | - |
| 1777826030 | 13.33° C | 66% | 1013.6 hPa | 0 mm | - | 120 W/m² | - |
| 1777825715 | 13.33° C | 64% | 1013.7 hPa | 0 mm | - | 120 W/m² | - |
* Rain latest hour (hover to see other rain measurements)
** Current wind speed in m/s (hover to see current wind gust speed)